This is the latest recevied weather packets stored in our database for station/object CT2IRJ-11. If no packets are shown the sender has not sent any weather packets the latest 10 day(s).
| Time | Temp. | Humidity | Pressure | Rain* | Wind** | Luminosity | Snow |
|---|---|---|---|---|---|---|---|
| 1777967610 | 15.56° C | 78% | 1017.3 hPa | 0 mm | - | 183 W/m² | - |
| 1777967309 | 15.56° C | 81% | 1016.9 hPa | 0 mm | - | 300 W/m² | - |
| 1777967010 | 15° C | 84% | 1017.3 hPa | 0 mm | - | 248 W/m² | - |
| 1777966710 | 13.89° C | 86% | 1016.9 hPa | 0 mm | - | 206 W/m² | - |
| 1777966410 | 13.33° C | 87% | 1017.3 hPa | 0 mm | - | 167 W/m² | - |
| 1777966110 | 12.78° C | 89% | 1017.3 hPa | 0 mm | - | 137 W/m² | - |
| 1777965809 | 12.22° C | 90% | 1017.6 hPa | 0 mm | - | 107 W/m² | - |
| 1777965510 | 12.22° C | 91% | 1016.9 hPa | 0 mm | - | 155 W/m² | - |
| 1777965210 | 11.67° C | 91% | 1017.3 hPa | 0 mm | - | 80 W/m² | - |
| 1777964910 | 11.67° C | 92% | 1016.9 hPa | 0 mm | - | 60 W/m² | - |
| 1777964610 | 10.56° C | 92% | 1016.9 hPa | 0 mm | - | 55 W/m² | - |
| 1777964309 | 11.11° C | 92% | 1016.9 hPa | 0 mm | - | 51 W/m² | - |
| 1777964009 | 10.56° C | 93% | 1017.3 hPa | 0 mm | - | 50 W/m² | - |
| 1777963709 | 9.44° C | 93% | 1016.6 hPa | 0 mm | - | 42 W/m² | - |
| 1777963410 | 9.44° C | 93% | 1016.9 hPa | 0 mm | - | 42 W/m² | - |
| 1777963110 | 9.44° C | 93% | 1016.9 hPa | 0 mm | - | 41 W/m² | - |
| 1777962810 | 8.89° C | 94% | 1016.9 hPa | 0 mm | - | 38 W/m² | - |
| 1777962510 | 8.89° C | 93% | 1016.6 hPa | 0 mm | - | 26 W/m² | - |
| 1777962210 | 8.33° C | 93% | 1016.9 hPa | 0 mm | - | 23 W/m² | - |
| 1777961910 | 8.33° C | 93% | 1016.9 hPa | 0 mm | - | 20 W/m² | - |
| 1777961610 | 8.33° C | 93% | 1016.6 hPa | 0 mm | - | 15 W/m² | - |
| 1777961309 | 8.33° C | 93% | 1016.6 hPa | 0 mm | - | 15 W/m² | - |
| 1777960709 | 7.78° C | 93% | 1016.6 hPa | 0 mm | - | 0 W/m² | - |
| 1777960409 | 7.78° C | 93% | 1016.9 hPa | 0 mm | - | 0 W/m² | - |
| 1777960112 | 7.78° C | 93% | 1016.6 hPa | 0 mm | - | 0 W/m² | - |
* Rain latest hour (hover to see other rain measurements)
** Current wind speed in m/s (hover to see current wind gust speed)